Location: Fontevrault
(47.1823°N, 0.0493°E)
Time: 04:21:15
(UTC+00:00)

Uosat 12 SS-18 rocket - Pass Details

Date: 01 November 2021
Orbit: 579 x 1405 km, 64.6° (Epoch: 01 December)

Event Time Altitude Azimuth Distance (km) Brightness Sun altitude
Rises 17:27:45 0° 294° (WNW) 3,428 8.8 -8.1°
Reaches altitude 10° 17:30:57 10° 314° (NW) 2,647 7.8 -8.6°
Maximum altitude 17:35:09 18° 356° (N) 2,298 6.9 -9.3°
Drops below altitude 10° 17:39:54 10° 38° (NE) 3,053 7.2 -10.1°
Enters shadow 17:41:33 - 46° (NE) 3,479 7.4 -10.4°
